Location: Noordwijk
(52.2400°N, 4.4500°E)
Time: 01:54:10
(UTC+00:00)

CAS-4B - Pass Details

Date: 14 December 2022
Orbit: 515 x 531 km, 43.0° (Epoch: 26 January)

Event Time Altitude Azimuth Distance (km) Brightness Sun altitude
Exits shadow 04:40:53 20° 162° (SSE) 1,269 ? -26.6°
Drops below altitude 10° 04:42:59 10° 133° (SE) 1,771 ? -26.2°
Sets 04:45:35 0° 118° (ESE) 2,664 ? -25.9°
